Location: Newark
(2.6153°S, 29.9989°E)
Time: 16:18:20
(UTC+00:00)

N. Korean satellite - Pass Details

Date: 27 August 2019
Orbit: 455 x 508 km, 97.2° (Epoch: 22 October)

Event Time Altitude Azimuth Distance (km) Brightness Sun altitude
Rises 02:47:20 0° 43° (NE) 2,481 11.0 -18.8°
Reaches altitude 10° 02:50:14 10° 71° (ENE) 1,602 10.4 -18.1°
Maximum altitude 02:51:57 13° 101° (ESE) 1,408 9.9 -17.6°
Drops below altitude 10° 02:53:40 10° 132° (SE) 1,599 9.7 -17.2°
Sets 02:56:33 0° 160° (SSE) 2,472 10.3 -16.5°
